Location: 81360 Arifat, France
(43.7204°N, 2.3408°E)
Time: 14:52:12
(UTC+02:00)

GHALIB - Pass Details

Date: 05 June 2022
Orbit: 510 x 523 km, 97.6° (Epoch: 04 July)

Event Time Altitude Azimuth Distance (km) Brightness Sun altitude
Exits shadow 04:12:23 27° 249° (WSW) 1,019 ? -16.0°
Maximum altitude 04:12:52 28° 264° (W) 997 ? -16.0°
Drops below altitude 10° 04:16:11 10° 325° (NW) 1,757 ? -15.7°
Sets 04:18:30 0° 337° (NNW) 2,647 ? -15.4°
